Weather History for Galliano, LA

Change the Weather History Date:

Friday, February 1, 2013

  Actual Average (KAXO) Record (KAXO)
Temperature  
Mean Temperature 52 °F -  
Max Temperature 64 °F 58 °F 64 °F (1998)
Min Temperature 39 °F 54 °F 44 °F (2008)
Degree Days  
Heating Degree Days 14    
Growing Degree Days 2 (Base 50)    
Moisture  
Dew Point 42 °F    
Average Humidity 73    
Maximum Humidity 100    
Minimum Humidity 37    
Precipitation  
Precipitation 0.00 in - - ()
Sea Level Pressure  
Sea Level Pressure 30.35 in    
Wind  
Wind Speed 2 mph (NE)    
Max Wind Speed 10 mph    
Max Gust Speed -    
Visibility 10 miles    
Events      
Averages and records for this station are not official NWS values.
T = Trace of Precipitation, MM = Missing Value Source: NWS Daily Summary

Daily Weather History Graph

Daily Weather History Graph

Search for Another Location

Airport:

Trip Planner

Search our weather history database for the weather conditions in past years. The results will help you decide how hot, cold, wet, or windy it might be!

Date:

Astronomy

Feb. 01, 2013 Rise Set
Actual Time 6:50 AM CST 5:39 PM CST
Civil Twilight 6:25 AM CST 6:04 PM CST
Nautical Twilight 5:56 AM CST 6:32 PM CST
Astronomical Twilight 5:28 AM CST 7:00 PM CST
Moon 11:13 PM CST (2/1) 9:54 AM CST (2/1)
Length of Visible Light 11h 38m
Length of Day
10h 49m
Waning Gibbous, 70% of the Moon is Illuminated
Feb 1
Waning Gibbous
Feb 3
Last Quarter
Feb 10
New
Feb 17
First Quarter
Feb 25
Full

Hourly Weather History & Observations

Time (CST) Temp. Windchill Dew Point Humidity Pressure Visibility Wind Dir Wind Speed Gust Speed Precip Events Conditions
12:15 AM 41.0 °F - 37.4 °F 87% 30.35 in 10.0 mi Calm Calm - N/A   Unknown
12:35 AM 41.0 °F - 37.4 °F 87% 30.35 in 10.0 mi Calm Calm - N/A   Unknown
1:15 AM 39.2 °F - 37.4 °F 93% 30.36 in 10.0 mi Calm Calm - N/A   Unknown
1:35 AM 39.2 °F - 37.4 °F 93% 30.36 in 10.0 mi Calm Calm - N/A   Unknown
1:55 AM 41.0 °F - 37.4 °F 87% 30.35 in 10.0 mi Calm Calm - N/A   Unknown
2:15 AM 42.8 °F - 37.4 °F 81% 30.34 in 10.0 mi Calm Calm - N/A   Unknown
2:35 AM 42.8 °F - 39.2 °F 87% 30.34 in 10.0 mi Calm Calm - N/A   Unknown
2:55 AM 44.6 °F - 39.2 °F 81% 30.33 in 10.0 mi Calm Calm - N/A   Unknown
3:15 AM 42.8 °F - 41.0 °F 93% 30.34 in 10.0 mi Calm Calm - N/A   Unknown
3:35 AM 42.8 °F - 41.0 °F 93% 30.33 in 10.0 mi Calm Calm - N/A   Unknown
3:55 AM 42.8 °F - 41.0 °F 93% 30.33 in 10.0 mi Calm Calm - N/A   Unknown
4:15 AM 42.8 °F - 41.0 °F 93% 30.33 in 10.0 mi Calm Calm - N/A   Unknown
4:35 AM 42.8 °F - 41.0 °F 93% 30.33 in 10.0 mi Calm Calm - N/A   Unknown
5:15 AM 42.8 °F - 41.0 °F 93% 30.34 in 10.0 mi Calm Calm - N/A   Unknown
5:35 AM 42.8 °F - 41.0 °F 93% 30.35 in 10.0 mi Calm Calm - N/A   Unknown
6:15 AM 42.8 °F - 41.0 °F 93% 30.36 in 10.0 mi Calm Calm - N/A   Unknown
6:35 AM 42.8 °F - 41.0 °F 93% 30.37 in 10.0 mi Calm Calm - N/A   Unknown
6:55 AM 44.6 °F - 41.0 °F 87% 30.37 in 10.0 mi North - - N/A   Unknown
7:15 AM 44.6 °F 42.2 °F 41.0 °F 87% 30.37 in 10.0 mi North 4.6 mph - N/A   Unknown
7:35 AM 46.4 °F 45.2 °F 42.8 °F 87% 30.38 in 10.0 mi NNW 3.5 mph - N/A   Unknown
7:55 AM 48.2 °F - 42.8 °F 82% 30.38 in 10.0 mi North - - N/A   Unknown
8:15 AM 51.8 °F - 44.6 °F 76% 30.40 in 10.0 mi North - - N/A   Unknown
8:35 AM 51.8 °F - 44.6 °F 76% 30.39 in 10.0 mi Calm Calm - N/A   Unknown
8:55 AM 53.6 °F - 44.6 °F 72% 30.40 in 10.0 mi Calm Calm - N/A   Unknown
9:15 AM 55.4 °F - 42.8 °F 63% 30.41 in 10.0 mi Calm Calm - N/A   Unknown
9:35 AM 55.4 °F - 44.6 °F 67% 30.40 in 10.0 mi NNW 3.5 mph - N/A   Unknown
9:55 AM 59.0 °F - 44.6 °F 59% 30.41 in 10.0 mi North 5.8 mph - N/A   Unknown
10:15 AM 59.0 °F - 46.4 °F 63% 30.41 in 10.0 mi NNW 8.1 mph - N/A   Unknown
10:35 AM 60.8 °F - 42.8 °F 52% 30.41 in 10.0 mi North 10.4 mph - N/A   Unknown
10:55 AM 60.8 °F - 44.6 °F 55% 30.41 in 10.0 mi North 9.2 mph - N/A   Unknown
11:15 AM 60.8 °F - 44.6 °F 55% 30.40 in 10.0 mi North 9.2 mph - N/A   Unknown
11:35 AM 62.6 °F - 44.6 °F 52% 30.39 in 10.0 mi NE 10.4 mph - N/A   Unknown
12:15 PM 62.6 °F - 42.8 °F 48% 30.38 in 10.0 mi North 6.9 mph - N/A   Unknown
12:35 PM 64.4 °F - 42.8 °F 45% 30.37 in 10.0 mi NE 5.8 mph - N/A   Unknown
12:55 PM 64.4 °F - 42.8 °F 45% 30.36 in 10.0 mi NNE 6.9 mph - N/A   Unknown
1:15 PM 64.4 °F - 41.0 °F 42% 30.35 in 10.0 mi North 6.9 mph - N/A   Unknown
1:35 PM 64.4 °F - 41.0 °F 42% 30.35 in 10.0 mi Calm Calm - N/A   Unknown
1:55 PM 64.4 °F - 39.2 °F 40% 30.34 in 10.0 mi ENE 5.8 mph - N/A   Unknown
2:15 PM 64.4 °F - 41.0 °F 42% 30.34 in 10.0 mi NE 5.8 mph - N/A   Unknown
2:35 PM 64.4 °F - 37.4 °F 37% 30.33 in 10.0 mi ENE 4.6 mph - N/A   Unknown
2:55 PM 64.4 °F - 37.4 °F 37% 30.33 in 5.0 mi North 4.6 mph - N/A   Haze
3:15 PM 64.4 °F - 37.4 °F 37% 30.32 in 10.0 mi ENE 4.6 mph - N/A   Unknown
3:35 PM 64.4 °F - 37.4 °F 37% 30.32 in 10.0 mi NE 6.9 mph - N/A   Unknown
3:55 PM 64.4 °F - 42.8 °F 45% 30.32 in 10.0 mi East 5.8 mph - N/A   Unknown
4:15 PM 62.6 °F - 42.8 °F 48% 30.32 in 10.0 mi East 5.8 mph - N/A   Unknown
4:35 PM 62.6 °F - 42.8 °F 48% 30.32 in 10.0 mi East 8.1 mph - N/A   Unknown
5:15 PM 59.0 °F - 44.6 °F 59% 30.33 in 10.0 mi ESE 8.1 mph - N/A   Unknown
5:35 PM 59.0 °F - 44.6 °F 59% 30.33 in 10.0 mi East 5.8 mph - N/A   Unknown
5:55 PM 55.4 °F - 46.4 °F 72% 30.33 in 10.0 mi East 5.8 mph - N/A   Unknown
6:15 PM 55.4 °F - 46.4 °F 72% 30.33 in 10.0 mi East 4.6 mph - N/A   Unknown
6:35 PM 53.6 °F - 46.4 °F 77% 30.33 in 10.0 mi East 4.6 mph - N/A   Unknown
6:55 PM 53.6 °F - 46.4 °F 77% 30.33 in 10.0 mi East 3.5 mph - N/A   Unknown
7:15 PM 53.6 °F - 46.4 °F 77% 30.33 in 10.0 mi East 4.6 mph - N/A   Unknown
7:35 PM 51.8 °F - 44.6 °F 76% 30.33 in 10.0 mi East 3.5 mph - N/A   Unknown
7:55 PM 46.4 °F 45.2 °F 42.8 °F 87% 30.34 in 10.0 mi East 3.5 mph - N/A   Unknown
8:15 PM 48.2 °F - 44.6 °F 87% 30.33 in 10.0 mi East 3.5 mph - N/A   Unknown
8:35 PM 46.4 °F 45.2 °F 42.8 °F 87% 30.34 in 10.0 mi East 3.5 mph - N/A   Unknown
8:55 PM 46.4 °F 45.2 °F 42.8 °F 87% 30.33 in 10.0 mi ENE 3.5 mph - N/A   Unknown
9:15 PM 46.4 °F - 44.6 °F 93% 30.34 in 10.0 mi Calm Calm - N/A   Unknown
9:35 PM 46.4 °F - 44.6 °F 93% 30.34 in 10.0 mi Calm Calm - N/A   Unknown
9:55 PM 46.4 °F - 42.8 °F 87% 30.35 in 10.0 mi Calm Calm - N/A   Unknown
10:15 PM 44.6 °F - 44.6 °F 100% 30.35 in 10.0 mi Calm Calm - N/A   Unknown
10:35 PM 42.8 °F - 42.8 °F 100% 30.34 in 10.0 mi Calm Calm - N/A   Unknown
10:55 PM 42.8 °F - 41.0 °F 93% 30.33 in 10.0 mi Calm Calm - N/A   Unknown
11:15 PM 42.8 °F - 41.0 °F 93% 30.32 in 10.0 mi Calm Calm - N/A   Unknown
11:35 PM 42.8 °F - 41.0 °F 93% 30.32 in 10.0 mi Calm Calm - N/A   Unknown
11:55 PM 42.8 °F - 41.0 °F 93% 30.32 in 10.0 mi Calm Calm - N/A   Unknown